TimeMST,TemperatureF,Dew PointF,Humidity,Sea Level PressureIn,VisibilityMPH,Wind Direction,Wind SpeedMPH,Gust SpeedMPH,PrecipitationIn,Events,Conditions,WindDirDegrees,DateUTC
12:15 AM,46.4,21.2,37,30.30,10.0,WSW,4.6,-,N/A,,Mostly Cloudy,240,2012-11-06 07:15:00
12:35 AM,44.6,21.2,39,30.30,10.0,North,4.6,-,N/A,,Mostly Cloudy,10,2012-11-06 07:35:00
12:55 AM,46.4,21.2,37,30.30,10.0,SSE,3.5,-,N/A,,Scattered Clouds,160,2012-11-06 07:55:00
1:15 AM,42.8,23.0,46,30.30,10.0,SSW,4.6,-,N/A,,Scattered Clouds,210,2012-11-06 08:15:00
1:35 AM,41.0,23.0,49,30.29,10.0,SSW,4.6,-,N/A,,Scattered Clouds,210,2012-11-06 08:35:00
1:55 AM,41.0,24.8,53,30.30,10.0,Calm,Calm,-,N/A,,Clear,0,2012-11-06 08:55:00
2:15 AM,41.0,23.0,49,30.30,10.0,Calm,Calm,-,N/A,,Clear,0,2012-11-06 09:15:00
2:35 AM,41.0,26.6,57,30.30,10.0,West,4.6,-,N/A,,Clear,260,2012-11-06 09:35:00
2:55 AM,41.0,24.8,53,30.30,10.0,West,3.5,-,N/A,,Clear,260,2012-11-06 09:55:00
3:15 AM,41.0,23.0,49,30.30,10.0,West,6.9,-,N/A,,Clear,260,2012-11-06 10:15:00
3:35 AM,42.8,19.4,39,30.29,10.0,West,3.5,-,N/A,,Clear,260,2012-11-06 10:35:00
3:55 AM,42.8,19.4,39,30.29,10.0,WSW,4.6,-,N/A,,Clear,250,2012-11-06 10:55:00
4:15 AM,42.8,21.2,42,30.29,10.0,WSW,5.8,-,N/A,,Clear,240,2012-11-06 11:15:00
4:35 AM,39.2,23.0,52,30.28,10.0,West,8.1,-,N/A,,Clear,260,2012-11-06 11:35:00
4:55 AM,39.2,21.2,49,30.28,10.0,West,5.8,-,N/A,,Clear,260,2012-11-06 11:55:00
5:15 AM,37.4,21.2,52,30.29,10.0,West,6.9,-,N/A,,Clear,260,2012-11-06 12:15:00
5:35 AM,39.2,21.2,49,30.29,10.0,WSW,5.8,-,N/A,,Clear,250,2012-11-06 12:35:00
5:55 AM,41.0,19.4,42,30.29,10.0,North,3.5,-,N/A,,Clear,10,2012-11-06 12:55:00
6:15 AM,46.4,15.8,29,30.29,10.0,Calm,Calm,-,N/A,,Clear,0,2012-11-06 13:15:00
6:35 AM,46.4,14.0,27,30.29,10.0,Calm,Calm,-,N/A,,Clear,0,2012-11-06 13:35:00
6:55 AM,44.6,14.0,29,30.30,10.0,Calm,Calm,-,N/A,,Clear,0,2012-11-06 13:55:00
7:15 AM,41.0,17.6,39,30.30,10.0,Calm,Calm,-,N/A,,Clear,0,2012-11-06 14:15:00
7:35 AM,44.6,14.0,29,30.31,10.0,Calm,Calm,-,N/A,,Clear,0,2012-11-06 14:35:00
7:55 AM,44.6,14.0,29,30.31,10.0,NNE,3.5,-,N/A,,Clear,20,2012-11-06 14:55:00
8:15 AM,44.6,14.0,29,30.32,10.0,North,4.6,-,N/A,,Clear,350,2012-11-06 15:15:00
8:35 AM,46.4,12.2,25,30.32,10.0,North,4.6,-,N/A,,Clear,350,2012-11-06 15:35:00
8:55 AM,46.4,12.2,25,30.33,10.0,Calm,Calm,-,N/A,,Clear,0,2012-11-06 15:55:00
9:15 AM,46.4,12.2,25,30.33,10.0,Calm,Calm,-,N/A,,Clear,0,2012-11-06 16:15:00
9:35 AM,48.2,12.2,24,30.32,10.0,Calm,Calm,-,N/A,,Clear,0,2012-11-06 16:35:00
9:55 AM,48.2,12.2,24,30.33,10.0,South,3.5,-,N/A,,Clear,180,2012-11-06 16:55:00
10:15 AM,46.4,28.4,50,30.33,10.0,SW,4.6,-,N/A,,Clear,220,2012-11-06 17:15:00
10:55 AM,50.0,15.8,26,30.32,10.0,SSW,6.9,-,N/A,,Clear,200,2012-11-06 17:55:00
11:15 AM,50.0,21.2,32,30.31,10.0,SW,8.1,-,N/A,,Clear,220,2012-11-06 18:15:00
11:35 AM,50.0,26.6,40,30.30,10.0,SSW,4.6,-,N/A,,Clear,210,2012-11-06 18:35:00
11:55 AM,51.8,23.0,33,30.29,10.0,WSW,11.5,-,N/A,,Clear,250,2012-11-06 18:55:00
12:15 PM,51.8,26.6,38,30.28,10.0,SW,13.8,19.6,N/A,,Clear,230,2012-11-06 19:15:00
12:35 PM,51.8,23.0,33,30.27,10.0,SSW,10.4,18.4,N/A,,Clear,210,2012-11-06 19:35:00
12:55 PM,53.6,23.0,30,30.27,10.0,WSW,13.8,18.4,N/A,,Clear,240,2012-11-06 19:55:00
1:15 PM,53.6,21.2,28,30.27,10.0,WSW,15.0,19.6,N/A,,Clear,250,2012-11-06 20:15:00
1:35 PM,53.6,23.0,30,30.27,10.0,SW,12.7,20.7,N/A,,Clear,230,2012-11-06 20:35:00
1:55 PM,53.6,21.2,28,30.26,10.0,WSW,13.8,19.6,N/A,,Clear,240,2012-11-06 20:55:00
2:15 PM,55.4,23.0,29,30.25,10.0,SW,10.4,19.6,N/A,,Clear,230,2012-11-06 21:15:00
2:35 PM,55.4,21.2,26,30.25,10.0,WSW,13.8,23.0,N/A,,Clear,250,2012-11-06 21:35:00
2:55 PM,55.4,23.0,29,30.25,10.0,WSW,12.7,19.6,N/A,,Clear,250,2012-11-06 21:55:00
3:15 PM,53.6,23.0,30,30.26,10.0,WSW,15.0,-,N/A,,Clear,250,2012-11-06 22:15:00
3:35 PM,53.6,23.0,30,30.26,10.0,West,13.8,24.2,N/A,,Clear,260,2012-11-06 22:35:00
3:55 PM,53.6,23.0,30,30.26,10.0,West,12.7,18.4,N/A,,Clear,270,2012-11-06 22:55:00
4:15 PM,51.8,23.0,33,30.27,10.0,West,10.4,18.4,N/A,,Clear,260,2012-11-06 23:15:00
4:35 PM,51.8,23.0,33,30.27,10.0,West,11.5,16.1,N/A,,Clear,260,2012-11-06 23:35:00
4:55 PM,50.0,23.0,35,30.26,10.0,West,12.7,-,N/A,,Clear,260,2012-11-06 23:55:00
5:15 PM,48.2,23.0,37,30.26,10.0,West,9.2,-,N/A,,Clear,260,2012-11-07 00:15:00
5:35 PM,46.4,24.8,43,30.27,10.0,West,10.4,-,N/A,,Clear,260,2012-11-07 00:35:00
5:55 PM,46.4,24.8,43,30.27,10.0,West,11.5,-,N/A,,Clear,260,2012-11-07 00:55:00
6:15 PM,46.4,23.0,40,30.27,10.0,West,11.5,-,N/A,,Clear,260,2012-11-07 01:15:00
6:35 PM,46.4,21.2,37,30.27,10.0,West,10.4,-,N/A,,Clear,260,2012-11-07 01:35:00
6:55 PM,46.4,23.0,40,30.26,10.0,West,11.5,-,N/A,,Clear,260,2012-11-07 01:55:00
7:15 PM,46.4,21.2,37,30.26,10.0,West,11.5,-,N/A,,Clear,270,2012-11-07 02:15:00
7:35 PM,46.4,19.4,34,30.25,10.0,West,10.4,17.3,N/A,,Clear,270,2012-11-07 02:35:00
7:55 PM,46.4,19.4,34,30.26,10.0,West,10.4,17.3,N/A,,Clear,260,2012-11-07 02:55:00
8:15 PM,46.4,19.4,34,30.25,10.0,West,10.4,16.1,N/A,,Clear,270,2012-11-07 03:15:00
8:35 PM,46.4,19.4,34,30.25,10.0,West,11.5,-,N/A,,Clear,260,2012-11-07 03:35:00
8:55 PM,46.4,19.4,34,30.25,10.0,West,10.4,-,N/A,,Clear,260,2012-11-07 03:55:00
9:15 PM,46.4,19.4,34,30.25,10.0,West,15.0,18.4,N/A,,Clear,260,2012-11-07 04:15:00
9:35 PM,46.4,21.2,37,30.24,10.0,West,12.7,17.3,N/A,,Clear,260,2012-11-07 04:35:00
10:15 PM,44.6,21.2,39,30.22,10.0,WSW,19.6,25.3,N/A,,Clear,250,2012-11-07 05:15:00
10:35 PM,44.6,23.0,43,30.23,10.0,West,15.0,-,N/A,,Clear,260,2012-11-07 05:35:00
10:55 PM,46.4,23.0,40,30.23,10.0,West,8.1,-,N/A,,Clear,260,2012-11-07 05:55:00
11:15 PM,44.6,23.0,43,30.21,10.0,WSW,8.1,-,N/A,,Clear,250,2012-11-07 06:15:00
11:35 PM,46.4,23.0,40,30.21,10.0,WSW,3.5,-,N/A,,Clear,240,2012-11-07 06:35:00
11:55 PM,46.4,23.0,40,30.20,10.0,Calm,Calm,-,N/A,,Clear,0,2012-11-07 06:55:00